Location: Brachbach
(49.1847°N, 9.7240°E)
Time: 00:31:52
(UTC+00:00)

FENGYUN 3A - Pass Details

Date: 21 August 2024
Orbit: 822 x 834 km, 98.6° (Epoch: 07 September)

Event Time Altitude Azimuth Distance (km) Brightness Sun altitude
Rises 01:25:22 0° 17° (NNE) 3,392 8.1 -23.3°
Reaches altitude 10° 01:27:47 10° 22° (NNE) 2,452 7.2 -23.0°
Maximum altitude 01:33:08 57° 101° (E) 972 4.1 -22.6°
Enters shadow 01:35:18 34° 163° (SSE) 1,330 4.4 -22.4°
